{"data":{"norad_id":51861,"epoch":"2026-09-19T13:05:11.425632Z","epoch_age_seconds":134749,"freshness":"FRESH","line1":"1 51861U 22022K   26262.54527113  .00000493  00000+0  25744-4 0  9996","line2":"2 51861  53.1604 207.8365 0001336  86.3683 273.7473 15.34391744252441","mean_motion":15.34391744,"eccentricity":0.0001336,"inclination_deg":53.1604,"raan_deg":207.8365,"arg_perigee_deg":86.3683,"mean_anomaly_deg":273.7473,"bstar":2.5744e-5,"rev_number":25244,"period_min":93.848263041749,"perigee_km":461.81383935455,"apogee_km":463.64171842347,"semimajor_km":6840.864778889,"source":"CELESTRAK","updated_at":"2026-09-20T09:00:39.946148Z"}}